{"data":{"norad_id":65448,"intl_designator":"2025-194Q","name":"STARLINK-35030","alt_names":[],"object_type":"PAYLOAD","status":"ACTIVE","operator":null,"country":"US","launch_date":"2025-09-03","launch_site_code":"AFWTR","launch_vehicle":null,"mission":null,"orbit_class":"UNKNOWN","rcs_meters":null,"size_class":null,"mass_kg":null,"dimensions":null,"purposes":["comms"],"wikipedia_slug":null,"has_3d_model":false,"image_url":null,"decayed_at":null,"tle_current":{"epoch":"2026-05-25T02:18:30.936096Z","epoch_age_seconds":66804,"freshness":"FRESH","line1":"1 65448U 25194Q   26145.09619139  .00003006  00000+0  21227-3 0  9999","line2":"2 65448  97.4512 359.3089 0002035  80.5128 279.6329 15.05656958 41146","mean_motion":15.05656958,"eccentricity":0.0002035,"inclination_deg":97.4512,"raan_deg":359.3089,"arg_perigee_deg":80.5128,"mean_anomaly_deg":279.6329,"bstar":0.00021227,"rev_number":4114,"period_min":95.639314941485,"perigee_km":548.08003909006,"apogee_km":550.8995832022,"semimajor_km":6927.6268111461,"source":"CELESTRAK","updated_at":"2026-05-25T13:38:20.808704Z"}}}